Weather History for KEEN - May, 2013

Change the Weather History Date:

Friday, May 17, 2013

  Actual Average (KMHT) Record (KMHT)
Temperature  
Mean Temperature 50 °F -  
Max Temperature 57 °F 69 °F - ()
Min Temperature 42 °F 48 °F - ()
Degree Days  
Heating Degree Days 16    
Cooling Degree Days 0    
Moisture  
Dew Point 38 °F    
Average Humidity 69    
Maximum Humidity 81    
Minimum Humidity 51    
Precipitation  
Precipitation 0.00 in 0.14 in - ()
Month to date precipitation 1.99  
Year to date precipitation 15.98  
Snow  
Snow 0.00 in - - ()
Month to date snowfall  
Since 1 July snowfall  
Snow Depth -    
Sea Level Pressure  
Sea Level Pressure 30.06 in    
Wind  
Wind Speed 6 mph (NNW)    
Max Wind Speed 21 mph    
Max Gust Speed 28 mph    
Visibility 10 miles    
Events      
T = Trace of Precipitation, MM = Missing Value Source: NWS Daily Summary

Daily Weather History Graph

Daily Weather History Graph

Search for Another Location

Airport or City:

Trip Planner

Search our weather history database for the weather conditions in past years. The results will help you decide how hot, cold, wet, or windy it might be!

Date:

Astronomy

May. 17, 2013 Rise Set
Actual Time 5:23 AM EDT 8:07 PM EDT
Civil Twilight 4:51 AM EDT 8:40 PM EDT
Nautical Twilight 4:09 AM EDT 9:22 PM EDT
Astronomical Twilight 3:22 AM EDT 10:09 PM EDT
Moon 11:57 AM EDT (5/17) 12:55 AM EDT (5/17)
Length of Visible Light 15h 49m
Length of Day
14h 43m
Waxing Crescent, 45% of the Moon is Illuminated
May 17
Waxing Crescent
May 18
First Quarter
May 25
Full
May 31
Last Quarter
Jun 8
New

Hourly Weather History & Observations

Time (EDT) Temp. Dew Point Humidity Pressure Visibility Wind Dir Wind Speed Gust Speed Precip Events Conditions
12:15 AM 53.6 °F 39.2 °F 58% 29.86 in 10.0 mi North 8.1 mph - N/A   Clear
12:35 AM - - N/A% 29.86 in 10.0 mi NNE 4.6 mph - N/A   Clear
12:55 AM 51.8 °F 39.2 °F 62% 29.88 in 10.0 mi Calm Calm - N/A   Clear
1:15 AM 50.0 °F 39.2 °F 66% 29.88 in 10.0 mi Calm Calm - N/A   Clear
1:35 AM 48.2 °F 39.2 °F 71% 29.89 in 10.0 mi Calm Calm - N/A   Clear
1:55 AM 46.4 °F 39.2 °F 76% 29.89 in 10.0 mi Calm Calm - N/A   Partly Cloudy
2:15 AM 46.4 °F 39.2 °F 76% 29.90 in 10.0 mi Calm Calm - N/A   Mostly Cloudy
2:35 AM 46.4 °F 39.2 °F 76% 29.90 in 10.0 mi Calm Calm - N/A   Overcast
2:55 AM 46.4 °F 39.2 °F 76% 29.90 in 10.0 mi Calm Calm - N/A   Mostly Cloudy
3:15 AM - - N/A% 29.90 in 10.0 mi Calm Calm - N/A   Partly Cloudy
3:35 AM - - N/A% 29.91 in 10.0 mi Calm Calm - N/A   Clear
3:55 AM - - N/A% 29.92 in 10.0 mi Calm Calm - N/A   Clear
4:15 AM 42.8 °F 37.4 °F 81% 29.93 in 10.0 mi Calm Calm - N/A   Clear
4:35 AM - - N/A% 29.93 in 10.0 mi Calm Calm - N/A   Clear
5:15 AM 42.8 °F 37.4 °F 81% 29.95 in 10.0 mi Calm Calm - N/A   Clear
5:35 AM 42.8 °F 35.6 °F 76% 29.97 in 10.0 mi Calm Calm - N/A   Clear
5:55 AM 42.8 °F 37.4 °F 81% 29.98 in 10.0 mi Calm Calm - N/A   Clear
6:15 AM 42.8 °F 37.4 °F 81% 30.00 in 10.0 mi Calm Calm - N/A   Clear
6:35 AM 46.4 °F 37.4 °F 71% 30.01 in 10.0 mi Calm Calm - N/A   Partly Cloudy
6:55 AM 46.4 °F 37.4 °F 71% 30.03 in 10.0 mi Calm Calm - N/A   Mostly Cloudy
7:15 AM 48.2 °F 37.4 °F 66% 30.04 in 10.0 mi North 6.9 mph - N/A   Overcast
7:35 AM 50.0 °F 37.4 °F 62% 30.04 in 10.0 mi NW 9.2 mph - N/A   Mostly Cloudy
8:15 AM 51.8 °F 37.4 °F 58% 30.04 in 10.0 mi NNW 13.8 mph 19.6 mph N/A   Clear
8:35 AM - - N/A% 30.04 in 10.0 mi North 20.7 mph 26.5 mph N/A   Clear
8:55 AM 53.6 °F 37.4 °F 54% 30.05 in 10.0 mi North 18.4 mph 21.9 mph N/A   Clear
9:16 AM - - N/A% 30.04 in 10.0 mi NNW 13.8 mph 19.6 mph N/A   Clear
9:35 AM - - N/A% 30.04 in 10.0 mi NNW 16.1 mph 20.7 mph N/A   Clear
9:55 AM - - N/A% 30.05 in 10.0 mi NNW 13.8 mph 21.9 mph N/A   Mostly Cloudy
10:15 AM - - N/A% 30.06 in 10.0 mi NNW 9.2 mph - N/A   Overcast
10:35 AM - - N/A% 30.06 in 10.0 mi NNW 12.7 mph 21.9 mph N/A   Overcast
10:55 AM - - N/A% 30.07 in 10.0 mi NW 11.5 mph 20.7 mph N/A   Overcast
11:15 AM 57.2 °F 39.2 °F 51% 30.08 in 10.0 mi North 15.0 mph 21.9 mph N/A   Mostly Cloudy
11:35 AM - - N/A% 30.08 in 10.0 mi NW 11.5 mph 20.7 mph N/A   Mostly Cloudy
11:55 AM - - N/A% 30.08 in 10.0 mi NNW 11.5 mph 21.9 mph N/A   Mostly Cloudy
12:15 PM - - N/A% 30.08 in 10.0 mi North 18.4 mph 25.3 mph N/A   Scattered Clouds
12:35 PM - - N/A% 30.07 in 10.0 mi NNW 12.7 mph 23.0 mph N/A   Partly Cloudy
12:55 PM - - N/A% 30.07 in 10.0 mi NW 10.4 mph 20.7 mph N/A   Partly Cloudy
1:15 PM - - N/A% 30.07 in 10.0 mi North 12.7 mph 18.4 mph N/A   Partly Cloudy
1:35 PM - - N/A% 30.07 in 10.0 mi NW 11.5 mph 24.2 mph N/A   Partly Cloudy
1:55 PM - - N/A% 30.07 in 10.0 mi NNW 12.7 mph 24.2 mph N/A   Clear
2:15 PM - - N/A% 30.08 in 10.0 mi NNW 9.2 mph 23.0 mph N/A   Clear
2:35 PM - - N/A% 30.07 in 10.0 mi NNE 17.3 mph 27.6 mph N/A   Clear
3:15 PM - - N/A% 30.08 in 10.0 mi North 19.6 mph 24.2 mph N/A   Clear
3:35 PM - - N/A% 30.08 in 10.0 mi NW 13.8 mph 23.0 mph N/A   Clear
3:55 PM - - N/A% 30.08 in 10.0 mi North 15.0 mph 24.2 mph N/A   Clear
4:15 PM - - N/A% 30.09 in 10.0 mi North 16.1 mph - N/A   Partly Cloudy
4:35 PM - - N/A% 30.09 in 10.0 mi NW 5.8 mph 18.4 mph N/A   Clear
4:55 PM - - N/A% 30.10 in 10.0 mi NNW 10.4 mph 19.6 mph N/A   Partly Cloudy
5:15 PM - - N/A% 30.10 in 10.0 mi NW 11.5 mph 19.6 mph N/A   Partly Cloudy
5:35 PM - - N/A% 30.11 in 10.0 mi NNW 10.4 mph 20.7 mph N/A   Clear
5:55 PM - - N/A% 30.11 in 10.0 mi North 12.7 mph 17.3 mph N/A   Clear
6:15 PM - - N/A% 30.12 in 10.0 mi North 10.4 mph - N/A   Clear
6:36 PM - - N/A% 30.13 in 10.0 mi NNW 8.1 mph 16.1 mph N/A   Clear
6:55 PM - - N/A% 30.13 in 10.0 mi North 12.7 mph - N/A   Clear
7:15 PM - - N/A% 30.14 in 10.0 mi NNW 8.1 mph - N/A   Clear
7:35 PM - - N/A% 30.15 in 10.0 mi NNE 9.2 mph - N/A   Clear
7:55 PM - - N/A% 30.15 in 10.0 mi NNE 3.5 mph - N/A   Clear
8:15 PM - - N/A% 30.16 in 10.0 mi Calm Calm - N/A   Clear
8:35 PM 53.6 °F 35.6 °F 51% 30.18 in 10.0 mi Calm Calm - N/A   Clear
8:55 PM - - N/A% 30.18 in 10.0 mi Calm Calm - N/A   Clear
9:15 PM - - N/A% 30.19 in 10.0 mi Calm Calm - N/A   Clear
9:35 PM - - N/A% 30.20 in 10.0 mi Calm Calm - N/A   Clear
9:55 PM - - N/A% 30.21 in 10.0 mi Calm Calm - N/A   Clear
10:15 PM - - N/A% 30.22 in 10.0 mi Calm Calm - N/A   Clear
10:35 PM - - N/A% 30.22 in 10.0 mi Calm Calm - N/A   Clear
10:55 PM - - N/A% 30.23 in 10.0 mi Calm Calm - N/A   Clear
11:15 PM - - N/A% 30.23 in 10.0 mi Calm Calm - N/A   Clear
11:35 PM - - N/A% 30.24 in 10.0 mi Calm Calm - N/A   Clear
11:55 PM - - N/A% 30.24 in 10.0 mi Calm Calm - N/A   Clear